This is the latest recevied weather packets stored in our database for station/object KD5HIA. If no packets are shown the sender has not sent any weather packets the latest 10 day(s).
| Time | Temp. | Humidity | Pressure | Rain* | Wind** | Luminosity | Snow |
|---|---|---|---|---|---|---|---|
| 1777746617 | 20° C | 46% | 1023.6 hPa | 0 mm | - | 911 W/m² | - |
| 1777746017 | 20° C | 48% | 1023.8 hPa | 0 mm | - | 901 W/m² | - |
| 1777745418 | 19.44° C | 48% | 1023.8 hPa | 0 mm | - | 898 W/m² | - |
| 1777744817 | 20° C | 49% | 1024 hPa | 0 mm | - | 914 W/m² | - |
| 1777744217 | 20.56° C | 50% | 1024.2 hPa | 0 mm | - | 880 W/m² | - |
| 1777743618 | 19.44° C | 50% | 1024.2 hPa | 0 mm | - | 875 W/m² | - |
| 1777743017 | 19.44° C | 56% | 1024.3 hPa | 0 mm | - | 866 W/m² | - |
| 1777742417 | 18.89° C | 53% | 1024.5 hPa | 0 mm | - | 854 W/m² | - |
| 1777741817 | 18.89° C | 55% | 1024.5 hPa | 0 mm | - | 819 W/m² | - |
| 1777741217 | 19.44° C | 56% | 1024.7 hPa | 0 mm | - | 792 W/m² | - |
| 1777740617 | 18.89° C | 57% | 1024.7 hPa | 0 mm | - | 770 W/m² | - |
| 1777740017 | 18.89° C | 59% | 1024.9 hPa | 0 mm | - | 753 W/m² | - |
| 1777739417 | 18.33° C | 57% | 1024.7 hPa | 0 mm | - | 732 W/m² | - |
| 1777738817 | 18.33° C | 60% | 1024.7 hPa | 0 mm | - | 710 W/m² | - |
| 1777738217 | 17.78° C | 59% | 1024.9 hPa | 0 mm | - | 682 W/m² | - |
| 1777737617 | 17.78° C | 61% | 1024.8 hPa | 0 mm | - | 654 W/m² | - |
| 1777737017 | 17.78° C | 59% | 1024.6 hPa | 0 mm | - | 626 W/m² | - |
| 1777736417 | 17.22° C | 61% | 1024.8 hPa | 0 mm | - | 603 W/m² | - |
| 1777735817 | 17.22° C | 60% | 1024.8 hPa | 0 mm | - | 558 W/m² | - |
| 1777735217 | 16.67° C | 63% | 1024.7 hPa | 0 mm | - | 476 W/m² | - |
| 1777734617 | 16.11° C | 61% | 1024.7 hPa | 0 mm | - | 412 W/m² | - |
| 1777734017 | 16.11° C | 61% | 1024.7 hPa | 0 mm | - | 375 W/m² | - |
| 1777733417 | 16.11° C | 64% | 1024.4 hPa | 0 mm | - | 367 W/m² | - |
| 1777732821 | 15.56° C | 67% | 1024.4 hPa | 0 mm | - | 336 W/m² | - |
| 1777732221 | 15° C | 65% | 1024.3 hPa | 0 mm | - | 307 W/m² | - |
* Rain latest hour (hover to see other rain measurements)
** Current wind speed in m/s (hover to see current wind gust speed)